Regional Weather Roundup
Issued by NWS

Home | Current Version | Previous Version | Graphics & Text | Print | Product List | Glossary On
Versions: 1 2 3 4 5 6 7 8 9 10 11 12 13 14 15 16 17 18 19 20 21 22 23 24 25 26 27 28 29 30 31 32 33 34 35 36 37 38 39 40 41 42 43 44 45 46 47 48 49 50
000
ASUS45 KBOI 271710
RWRID

IDAHO REGIONAL WEATHER ROUNDUP
NATIONAL WEATHER SERVICE BOISE ID
1100 AM MDT TUE JUN 27 2017

NOTE: "FAIR" INDICATES FEW OR NO CLOUDS BELOW 12000 FEET
WITH NO SIGNIFICANT WEATHER AND/OR OBSTRUCTIONS TO VISIBILITY

IDZ012-014-271800-
SOUTHWEST IDAHO


CITY           SKY/WX    TMP DP  RH WIND       PRES   REMARKS
BOISE          SUNNY     77  50  38 NW9       29.94S
CALDWELL       SUNNY     78  52  40 W8        29.92F
MOUNTAIN HOME  SUNNY     81  46  30 NW17      29.93F
$$

IDZ016-017-271800-
SOUTHCENTRAL IDAHO


CITY           SKY/WX    TMP DP  RH WIND       PRES   REMARKS
BURLEY         SUNNY     73  50  44 W14G24    29.97R
JEROME         SUNNY     78  45  30 SW17      29.98S
TWIN FALLS     SUNNY     76  46  34 W20       29.99S
$$

IDZ019>023-271800-
SOUTHEAST IDAHO


CITY           SKY/WX    TMP DP  RH WIND       PRES   REMARKS
IDAHO FALLS    PTSUNNY   68  50  52 NE7       29.97F THUNDER
POCATELLO      SUNNY     73  50  44 W18       29.98F
REXBURG        LGT RAIN  57  53  86 NW3       29.98F FOG
$$

IDZ006-010-011-018-031-032-271800-
CENTRAL IDAHO MOUNTAINS


CITY           SKY/WX    TMP DP  RH WIND       PRES   REMARKS
MCCALL         SUNNY     66  48  52 SE6       29.99S
HAILEY         MOSUNNY   72  50  46 SE6       30.01S
STANLEY          N/A     63  48  58 VRB5      30.09F
SALMON         MOSUNNY   66  48  52 N5        29.93F
CHALLIS        PTSUNNY   67  48  50 SE7       30.00F
$$

IDZ002-004-006-007-026-271800-
NORTHERN IDAHO


CITY           SKY/WX    TMP DP  RH WIND       PRES   REMARKS
LEWISTON       MOSUNNY   76  53  44 VRB6      29.88S
LOWELL           N/A     71  56  58 CALM      29.88R
COEUR D`ALENE  MOSUNNY   67  54  63 W7        29.90S
MULLAN PASS    MOSUNNY   59  44  57 VRB3      30.00R
$$



USA.gov is the U.S. government's official web portal to all federal, state and local government web resources and services.